FW8630 Weather Reports


Display with metric or nautical units.
time (UTC)temp
F
wind
direction
speed
MPH
gust
MPH
rain 1hr
in
rain 24hr
in
rain mn
in
humidity
%
barometer
mb
20260901110031 64 229 2.0 7.0 0.00 0.00 0.00 88 1010.9
20260901104530 64 265 2.0 8.0 0.00 0.00 0.00 88 1010.8
20260901103025 64 261 2.0 9.0 0.00 0.00 0.00 88 1010.5
20260901101522 64 227 1.0 4.0 0.00 0.00 0.00 87 1010.5
20260901100020 63 257 1.0 3.0 0.00 0.00 0.00 87 1010.5
20260901094520 63 159 0.0 3.0 0.00 0.00 0.00 86 1010.4
20260901093017 63 196 1.0 3.0 0.00 0.00 0.00 86 1010.4
20260901091516 63 205 1.0 6.0 0.00 0.00 0.00 86 1010.4
20260901090015 63 186 1.0 3.0 0.00 0.00 0.00 87 1010.3
20260901084515 63 184 1.0 3.0 0.00 0.00 0.00 88 1010.2
20260901083022 63 210 0.0 3.0 0.00 0.00 0.00 90 1010.2
20260901081517 63 239 1.0 4.0 0.00 0.00 0.00 91 1010.1
20260901080012 62 267 1.0 6.0 0.00 0.00 0.00 91 1009.9
20260901074511 62 215 0.0 3.0 0.00 0.00 0.00 92 1010.0
20260901073009 62 194 1.0 3.0 0.00 0.00 0.00 92 1009.9
20260901071508 61 194 0.0 4.0 0.00 0.00 0.00 92 1009.8
20260901070016 61 194 1.0 3.0 0.00 0.00 0.00 92 1009.7
20260901064507 61 269 1.0 4.0 0.00 0.00 0.00 92 1009.7
20260901063006 61 203 1.0 3.0 0.00 0.00 0.00 92 1009.5
20260901061508 62 236 1.0 3.0 0.00 0.00 0.00 92 1009.5
20260901060002 62 239 0.0 3.0 0.00 0.00 0.00 92 1009.3
20260901054501 62 296 0.0 4.0 0.00 0.00 0.00 92 1009.4
20260901053059 62 275 0.0 4.0 0.00 0.00 0.00 92 1009.4
20260901051603 62 267 0.0 2.0 0.00 0.00 0.00 92 1009.4
20260901050055 61 223 0.0 4.0 0.00 0.00 0.00 92 1009.4
20260901044555 61 124 0.0 0.0 0.00 0.00 0.00 92 1009.4
20260901043054 60 124 0.0 2.0 0.00 0.00 0.00 92 1009.4
20260901041614 60 183 0.0 1.0 0.00 0.00 0.00 92 1009.5
20260901040104 61 183 0.0 2.0 0.00 0.00 0.00 91 1009.4
20260901034551 61 183 0.0 3.0 0.00 0.00 0.00 91 1009.4
20260901033050 61 190 1.0 6.0 0.00 0.00 0.00 91 1009.6
20260901031552 60 169 2.0 5.0 0.00 0.00 0.00 91 1009.6
20260901030048 60 159 1.0 4.0 0.00 0.00 0.00 91 1009.5
20260901024551 60 186 0.0 3.0 0.00 0.00 0.00 91 1009.7
20260901023047 59 153 0.0 3.0 0.00 0.00 0.00 91 1009.6
20260901021552 59 150 0.0 2.0 0.00 0.00 0.00 90 1009.6
20260901020050 60 150 0.0 3.0 0.00 0.00 0.00 90 1009.6
20260901014544 60 140 0.0 3.0 0.00 0.00 0.00 90 1009.8
20260901013045 59 153 1.0 3.0 0.00 0.00 0.00 90 1009.7
20260901011544 59 158 0.0 3.0 0.00 0.00 0.00 90 1009.8
20260901003033 60 159 0.0 0.0 0.00 0.00 0.00 89 1009.9
20260831234530 61 160 0.0 2.0 0.00 0.00 0.00 89 1010.2
20260831233025 61 161 0.0 2.0 0.00 0.00 0.00 89 1010.3
20260831231530 61 160 0.0 2.0 0.00 0.00 0.00 89 1010.2
20260831230029 61 173 1.0 3.0 0.00 0.00 0.00 89 1010.5
20260831224522 61 190 1.0 5.0 0.00 0.00 0.00 89 1010.6
20260831223020 61 186 2.0 6.0 0.00 0.00 0.00 89 1010.7
20260831221519 61 185 2.0 5.0 0.00 0.00 0.00 89 1010.7
20260831220017 62 182 2.0 5.0 0.00 0.00 0.00 89 1010.7
20260831214517 62 188 2.0 6.0 0.00 0.00 0.00 89 1010.7
20260831213016 62 195 1.0 6.0 0.00 0.00 0.00 89 1010.8
20260831211527 62 188 2.0 7.0 0.00 0.00 0.00 88 1010.8
20260831210015 61 176 2.0 6.0 0.00 0.00 0.00 88 1010.7
20260831204514 61 174 1.0 5.0 0.00 0.00 0.00 88 1010.6
20260831203019 61 187 2.0 6.0 0.00 0.00 0.00 87 1010.8
20260831201514 61 170 3.0 7.0 0.00 0.00 0.00 88 1010.8
20260831200012 61 196 3.0 8.0 0.00 0.00 0.00 88 1010.8
20260831194512 62 171 2.0 8.0 0.00 0.00 0.00 88 1010.9
20260831193014 62 175 3.0 7.0 0.00 0.00 0.00 88 1010.9
20260831191510 62 175 2.0 8.0 0.00 0.00 0.00 89 1010.9
20260831190112 62 171 3.0 7.0 0.00 0.00 0.00 89 1010.7
20260831184510 62 175 2.0 8.0 0.00 0.00 0.00 90 1010.6
20260831183008 62 164 2.0 7.0 0.00 0.00 0.00 91 1010.7
20260831181508 62 177 3.0 8.0 0.00 0.00 0.00 92 1010.7
20260831180011 63 189 3.0 9.0 0.00 0.03 0.00 92 1010.7
20260831174507 63 203 3.0 7.0 0.00 0.03 0.00 93 1010.7
20260831173005 63 192 3.0 11.0 0.00 0.03 0.00 93 1010.5
20260831171505 63 175 4.0 11.0 0.00 0.03 0.00 94 1010.7
20260831170008 63 215 3.0 9.0 0.00 0.03 0.00 94 1010.6
20260831164504 63 198 3.0 10.0 0.00 0.03 0.00 93 1010.6
20260831163003 63 165 3.0 8.0 0.00 0.03 0.00 93 1010.6
20260831161506 63 184 4.0 10.0 0.00 0.03 0.00 92 1010.4
20260831160008 63 180 6.0 11.0 0.00 0.03 0.00 92 1010.7
20260831154502 63 205 3.0 13.0 0.00 0.03 0.00 92 1010.6
20260831153100 63 196 3.0 11.0 0.00 0.03 0.00 93 1010.8
20260831151600 63 197 5.0 11.0 0.00 0.03 0.00 92 1011.0
20260831150059 63 177 3.0 12.0 0.00 0.03 0.00 92 1011.0
20260831144605 63 187 4.0 15.0 0.00 0.03 0.00 92 1011.0
20260831143106 63 190 5.0 11.0 0.00 0.03 0.00 92 1011.1
20260831141557 64 194 5.0 13.0 0.00 0.03 0.00 91 1011.1
20260831140056 64 198 2.0 13.0 0.00 0.03 0.00 90 1011.0
20260831134556 64 226 6.0 12.0 0.00 0.03 0.00 91 1011.0
20260831133054 64 204 5.0 10.0 0.00 0.03 0.00 91 1010.9
20260831131556 64 185 2.0 8.0 0.00 0.03 0.00 92 1010.9
20260831130110 64 194 7.0 17.0 0.00 0.03 0.00 91 1011.0
20260831124553 64 184 4.0 11.0 0.00 0.03 0.00 90 1010.8
20260831123052 64 225 3.0 11.0 0.00 0.03 0.00 90 1010.7
20260831121552 65 192 5.0 13.0 0.00 0.03 0.00 89 1010.5
20260831120050 65 245 3.0 14.0 0.00 0.03 0.00 91 1010.6
20260831114550 64 214 4.0 12.0 0.00 0.03 0.00 90 1010.9
20260831113049 64 227 3.0 7.0 0.00 0.03 0.00 90 1011.0
20260831111548 64 242 3.0 8.0 0.00 0.03 0.00 89 1011.1